OE3FJB-25 Weather Reports


time (UTC)temp
F
wind
direction
speed
knots
gust
knots
rain 1hr
in
rain 24hr
in
rain mn
in
humidity
%
barometer
mb
20260504044553 58 0.0 0.0 0.00 0.00 0.00 99 1017.3
20260504043554 58 0.0 0.0 0.00 0.00 0.00 99 1017.2
20260504042556 58 0.0 0.0 0.00 0.00 0.00 99 1017.1
20260504041557 59 0.0 0.0 0.00 0.00 0.00 99 1017.1
20260504040558 58 0.0 0.0 0.00 0.00 0.00 99 1017.0
20260504035600 58 0.0 0.0 0.00 0.00 0.00 99 1016.9
20260504034601 58 0.0 0.0 0.00 0.00 0.00 99 1017.0
20260504033602 57 0.0 0.0 0.00 0.00 0.00 99 1017.0
20260504032604 57 0.0 0.0 0.00 0.00 0.00 99 1017.0
20260504031605 57 0.0 0.0 0.00 0.00 0.00 99 1017.0
20260504030606 57 0.0 0.0 0.00 0.00 0.00 99 1017.0
20260504025608 57 0.0 0.0 0.00 0.00 0.00 99 1017.1
20260504024609 57 0.0 0.0 0.00 0.00 0.00 99 1017.1
20260504023611 58 0.0 0.0 0.00 0.00 0.00 99 1017.0
20260504022612 58 0.0 0.0 0.00 0.00 0.00 99 1017.1
20260504021613 57 0.0 0.0 0.00 0.00 0.00 99 1017.0
20260504020615 56 0.0 0.0 0.00 0.00 0.00 99 1017.0
20260504015616 54 0.0 0.0 0.00 0.00 0.00 99 1016.9
20260504014617 54 0.0 0.0 0.00 0.00 0.00 99 1016.9
20260504013619 55 0.0 0.0 0.00 0.00 0.00 99 1016.7
20260504012620 55 0.0 0.0 0.00 0.00 0.00 99 1016.6
20260504011621 55 0.0 0.0 0.00 0.00 0.00 99 1016.7
20260504010623 55 0.0 0.0 0.00 0.00 0.00 99 1016.7
20260504005624 54 0.0 0.0 0.00 0.00 0.00 99 1016.7
20260504004625 54 0.0 0.0 0.00 0.00 0.00 99 1016.7
20260504003627 54 0.0 0.0 0.00 0.00 0.00 99 1016.7
20260504002628 54 0.0 0.0 0.00 0.00 0.00 99 1016.7
20260504001629 54 0.0 0.0 0.00 0.00 0.00 99 1016.6
20260504000631 53 0.0 0.0 0.00 0.00 0.00 99 1016.7
20260503235632 52 0.0 0.0 0.00 0.00 0.00 99 1016.7
20260503234634 52 0.0 0.0 0.00 0.00 0.00 99 1016.7
20260503233635 52 0.0 0.0 0.00 0.00 0.00 99 1016.7
20260503232636 52 0.0 0.0 0.00 0.00 0.00 99 1016.7
20260503231637 52 0.0 0.0 0.00 0.00 0.00 99 1016.7
20260503230639 52 0.0 0.0 0.00 0.00 0.00 99 1016.7
20260503225639 53 0.0 0.0 0.00 0.00 0.00 99 1016.7
20260503224640 53 0.0 0.0 0.00 0.00 0.00 99 1016.8
20260503223642 54 0.0 0.0 0.00 0.00 0.00 99 1016.8
20260503222643 54 0.0 0.0 0.00 0.00 0.00 99 1016.8
20260503221644 55 0.0 0.0 0.00 0.00 0.00 99 1016.8
20260503220646 55 0.0 0.0 0.00 0.00 0.00 99 1016.8
20260503215647 56 0.0 0.0 0.00 0.00 0.00 99 1016.8
20260503214648 56 0.0 0.0 0.00 0.00 0.00 99 1016.8
20260503213650 56 0.0 0.0 0.00 0.00 0.00 99 1016.8
20260503212651 56 0.0 0.0 0.00 0.00 0.00 99 1016.8
20260503211652 56 0.0 0.0 0.00 0.00 0.00 99 1016.8
20260503210654 56 0.0 0.0 0.00 0.00 0.00 99 1016.9
20260503205655 56 0.0 0.0 0.00 0.00 0.00 99 1016.9
20260503204656 56 0.0 0.0 0.00 0.00 0.00 99 1017.0
20260503203658 56 0.0 0.0 0.00 0.00 0.00 99 1017.1
20260503202659 56 0.0 0.0 0.00 0.00 0.00 99 1017.2
20260503201701 57 0.0 0.0 0.00 0.00 0.00 99 1017.2
20260503200702 57 0.0 0.0 0.00 0.00 0.00 99 1017.3
20260503195703 58 0.0 0.0 0.00 0.00 0.00 99 1017.4
20260503194705 58 0.0 0.0 0.00 0.00 0.00 99 1017.5
20260503193706 59 0.0 0.0 0.00 0.00 0.00 99 1017.5
20260503192707 60 0.0 0.0 0.00 0.00 0.00 99 1017.5
20260503191709 60 0.0 0.0 0.00 0.00 0.00 98 1017.5
20260503190710 61 0.0 0.0 0.00 0.00 0.00 95 1017.5
20260503185712 61 0.0 0.0 0.00 0.00 0.00 91 1017.5
20260503184713 62 0.0 0.0 0.00 0.00 0.00 87 1017.6
20260503183714 62 0.0 0.0 0.00 0.00 0.00 84 1017.5
20260503182716 63 0.0 0.0 0.00 0.00 0.00 81 1017.4
20260503181717 63 0.0 0.0 0.00 0.00 0.00 78 1017.4
20260503180718 64 0.0 0.0 0.00 0.00 0.00 75 1017.4
20260503175720 64 0.0 0.0 0.00 0.00 0.00 73 1017.4
20260503174721 64 0.0 0.0 0.00 0.00 0.00 70 1017.3
20260503173723 65 0.0 0.0 0.00 0.00 0.00 66 1017.4
20260503172724 66 0.0 0.0 0.00 0.00 0.00 63 1017.5
20260503171725 66 0.0 0.0 0.00 0.00 0.00 59 1017.4
20260503170727 67 0.0 0.0 0.00 0.00 0.00 55 1017.5
20260503150741 71 0.0 0.0 0.00 0.00 0.00 38 1017.7
20260503130759 73 0.0 0.0 0.00 0.00 0.00 36 1018.9
20260503110814 73 0.0 0.0 0.00 0.00 0.00 35 1020.1
20260503080839 64 0.0 0.0 0.00 0.00 0.00 77 1021.0
20260503072844 63 0.0 0.0 0.00 0.00 0.00 83 1020.8
20260503071846 64 0.0 0.0 0.00 0.00 0.00 79 1020.8
20260503070847 63 0.0 0.0 0.00 0.00 0.00 89 1020.8
20260503053858 54 0.0 0.0 0.00 0.00 0.00 99 1020.5
20260503052859 53 0.0 0.0 0.00 0.00 0.00 99 1020.4
20260503051900 53 0.0 0.0 0.00 0.00 0.00 99 1020.4
20260503050902 53 0.0 0.0 0.00 0.00 0.00 99 1020.4
20260503045904 53 0.0 0.0 0.00 0.00 0.00 99 1020.4